Tracking 27405 objects as of 1-Jun-2023
HD Live streaming from Space Station
objects crossing your sky now

LEMUR 2 GREGROBINSON

Track LEMUR 2 GREGROBINSON now!
10-day predictions
LEMUR 2 GREGROBINSON is classified as:


NORAD ID: 44411
Int'l Code: 2019-038AB
Perigee: 449.5 km
Apogee: 474.7 km
Inclination: 97.6 °
Period: 93.7 minutes
Semi major axis: 6833 km
RCS: Unknown
Launch date: July 5, 2019
Source: United States (US)
Launch site: ()
Your satellite tracking list
Your tracking list is empty




NASA's NSSDC Master Catalog

Two Line Element Set (TLE):
1 44411U 19038AB  23151.92901156  .00032472  00000-0  89153-3 0  9997
2 44411  97.6480 134.2099 0018409  19.7482 340.4471 15.37011062215862
Source of the keplerian elements: AFSPC